George/Botha, South Africa

7:41 AM SAST on March 25, 2017 (GMT +0200)
George/Botha

Weather History for 68828 - December, 2013

Change the Weather History Date:

Friday, December 20, 2013

  Actual Average Record
Temperature  
Mean Temperature 70 °F -  
Max Temperature 80 °F 73 °F - ()
Min Temperature 61 °F 58 °F - ()
Cooling Degree Days 6    
Growing Degree Days 20 (Base 50)    
Moisture  
Dew Point 62 °F    
Average Humidity 70    
Maximum Humidity 88    
Minimum Humidity 54    
Precipitation  
Precipitation 0.00 in - - ()
Sea Level Pressure  
Sea Level Pressure 29.83 in    
Wind  
Wind Speed 5 mph ()    
Max Wind Speed 9 mph    
Max Gust Speed -    
Visibility 7.4 miles    
Events      
T = Trace of Precipitation, MM = Missing Value Source: Averaged Metar Reports

Daily Weather History Graph

Daily Weather History Graph

Search for Another Location

Airport or City:

Trip Planner

Search our weather history database for the weather conditions in past years. The results will help you decide how hot, cold, wet, or windy it might be!

Date:

Astronomy

Dec. 20, 2013 Rise Set
Actual Time 5:15 AM SAST 7:40 PM SAST
Civil Twilight 4:46 AM SAST 8:10 PM SAST
Nautical Twilight 4:10 AM SAST 8:46 PM SAST
Astronomical Twilight 3:30 AM SAST 9:25 PM SAST
Moon 9:40 PM SAST (12/20) 7:53 AM SAST (12/20)
Length of Visible Light 15h 23m
Length of Day
14h 25m
Waning Gibbous, 92% of the Moon is Illuminated
Dec 20
Waning Gibbous
Dec 25
Last Quarter
Jan 1
New
Jan 8
First Quarter
Jan 16
Full

Hourly Weather History & Observations

Time (SAST) Temp. Heat Index Dew Point Humidity Pressure Visibility Wind Dir Wind Speed Gust Speed Precip Events Conditions
7:00 AM 64.4 °F - 59.0 °F 83% 29.89 in 6.2 mi Variable 2.3 mph - N/A   Mostly Cloudy
8:00 AM 66 °F - 59 °F 71% 29.87 in 12 mi 2.3 mph - -   Scattered Clouds
8:00 AM 66.2 °F - 59.0 °F 78% 29.89 in 6.2 mi Variable 2.3 mph - N/A   Partly Cloudy
9:00 AM 69.8 °F - 62.6 °F 78% 29.86 in 6.2 mi SW 5.8 mph - N/A   Partly Cloudy
10:00 AM 73.4 °F - 62.6 °F 69% 29.83 in 6.2 mi Variable 4.6 mph - N/A   Partly Cloudy
11:00 AM 73 °F - 63 °F 64% 29.82 in 12 mi South 6.9 mph - -   Partly Cloudy
11:00 AM 73.4 °F - 62.6 °F 69% 29.83 in 6.2 mi South 6.9 mph - N/A   Partly Cloudy
12:00 PM 73.4 °F - 64.4 °F 73% 29.83 in 6.2 mi SW 5.8 mph - N/A   Partly Cloudy
1:00 PM 75.2 °F - 62.6 °F 65% 29.83 in - SSW 6.9 mph - N/A   Clear
2:00 PM 77 °F - 63 °F 54% 29.79 in 19 mi South 4.6 mph - -   Scattered Clouds
2:00 PM 78.8 °F - 64.4 °F 61% 29.80 in - South 4.6 mph - N/A   Clear
3:00 PM 78.8 °F - 64.4 °F 61% 29.80 in 6.2 mi SSW 9.2 mph - N/A   Partly Cloudy
4:00 PM 80.6 °F 81.8 °F 62.6 °F 54% 29.77 in 6.2 mi Variable 3.5 mph - N/A   Partly Cloudy
5:00 PM 75 °F - 62 °F 54% 29.76 in 12 mi SSW 8.1 mph - -   Scattered Clouds
5:00 PM 75.2 °F - 60.8 °F 61% 29.77 in - SSW 8.1 mph - N/A   Clear
6:00 PM 75.2 °F - 62.6 °F 65% 29.80 in - SSW 9.2 mph - N/A   Clear
7:00 PM 73.4 °F - 62.6 °F 69% 29.83 in - SSW 4.6 mph - N/A   Clear
8:00 PM 67 °F - 64 °F 86% 29.84 in 4 mi SW 8.1 mph - -   Mist
8:00 PM 68.0 °F - 64.4 °F 88% 29.86 in 3.7 mi SW 8.1 mph - N/A   Partly Cloudy
9:00 PM 66.2 °F - 62.6 °F 88% 29.89 in 3.1 mi SW 4.6 mph - N/A   Mostly Cloudy
10:00 PM 66.2 °F - 62.6 °F 88% 29.92 in 3.1 mi West 9.2 mph - N/A   Overcast